EHI
1 1 0 0 0 0 0 0 0 0 0 0 0 0 0 0 0 0 0 0 0 0 0 1 1 1 1 0 0 0 0 0 0 0 0 0 0 0 0 0 0 0 0 0 0 0 0 0 0
1 0 0 0 0 0 0 0 0 0 0 0 0 0 0 0 0 0 0 0 0 0 0 1 1 1 1 1 0 0 0 0 0 0 0 0 0 0 0 0 0 0 0 0 0 0 0 0 0
0 0 0 0 0 0 0 0 0 0 0 0 0 0 0 0 0 0 0 0 0 0 0 1 1 1 2 2 0 0 0 0 0 0 0 0 0 0 0 0 0 0 0 0 0 0 0 0 0
0 0 0 0 0 0 0 0 0 0 0 0 0 0 0 0 0 0 0 0 0 0 0 0 0 1 1 1 0 0 0 0 0 0 0 0 0 0 0 0 0 0 0 0 0 0 0 0 0
0 0 0 0 0 0 0 0 0 0 0 0 0 0 0 0 0 0 0 0 0 0 0 0 0 0 0 0 0 0 0 0 0 0 0 0 0 0 0 0 0 0 0 0 0 0 0 0 0
0 0 0 0 0 0 0 0 0 0 0 0 0 0 0 0 0 0 0 0 0 0 0 0 0 0 0 0 0 0 0 0 0 0 0 0 0 0 0 0 0 0 0 0 0 0 0 0 0
0 0 0 0 0 0 0 0 0 0 0 0 0 0 0 0 0 0 0 0 0 0 0 0 0 0 0 0 0 0 0 0 0 0 0 0 0 0 0 0 0 0 0 0 0 0 0 0 0
0 0 0 0 0 0 0 0 0 0 0 0 0 0 0 0 0 0 0 0 0 0 0 0 0 0 0 0 0 0 0 0 0 0 0 0 0 0 0 0 0 0 0 0 0 0 0 0 0
0 0 0 0 0 0 0 0 0 0 0 0 0 0 0 0 0 1 0 0 0 0 0 1 0 0 0 0 0 0 0 0 0 0 0 0 0 0 0 0 0 0 0 0 0 0 0 0 0
0 0 0 0 0 0 0 0 0 0 0 0 0 0 0 0 0 0 0 0 0 0 0 0 0 0 0 0 0 0 0 0 0 0 0 0 0 0 0 0 0 0 0 0 0 0 0 0 0
1 0 0 0 0 0 0 0 0 0 0 0 0 0 0 0 0 0 0 0 0 0 0 0 0 0 0 0 0 0 0 0 0 0 0 0 0 0 0 0 0 0 0 0 0 0 0 0 0
1 0 0 0 0 0 0 0 0 0 0 0 0 0 0 0 0 0 0 0 0 0 0 0 0 0 0 0 0 0 0 0 0 0 0 0 0 0 0 0 0 0 0 0 0 0 0 0 0
1 0 0 0 0 0 0 0 0 0 0 0 0 0 0 0 0 0 0 0 0 0 0 0 0 0 0 0 0 0 0 0 0 0 0 0 0 0 0 0 0 0 0 0 0 0 0 0 0
0 0 0 0 0 0 0 0 0 0 0 0 0 0 0 0 0 0 0 0 0 0 0 0 0 0 0 0 0 0 0 0 0 0 0 0 0 0 0 0 0 0 0 0 0 0 0 0 0
0 0 0 0 0 0 0 0 0 0 0 0 0 0 0 0 0 0 0 0 0 0 0 0 0 0 0 0 0 0 0 0 0 0 0 0 0 0 0 0 0 0 0 0 0 0 0 0 0
0 0 0 0 0 0 0 0 0 0 0 0 0 0 0 0 0 0 0 0 0 0 0 0 0 0 0 0 0 0 0 0 0 0 0 0 0 0 0 0 0 0 0 0 0 0 0 0 0
0 0 0 0 0 0 0 0 0 0 0 0 0 0 0 0 0 0 0 1 1 0 0 0 0 0 0 0 0 0 0 0 0 0 0 0 0 0 0 0 0 0 0 0 0 0 0 0 0
0 0 0 0 0 0 0 0 0 0 0 0 0 0 0 0 0 0 1 2 2 1 0 0 0 0 0 0 0 0 0 0 0 0 0 0 0 0 0 0 0 0 0 0 0 0 0 0 0
0 0 0 0 0 0 0 0 0 0 0 0 0 0 0 0 0 0 1 2 2 1 0 1 1 1 0 0 0 0 0 0 0 0 0 0 0 0 0 0 0 0 0 0 0 0 0 0 0
0 0 0 0 0 0 0 0 0 0 0 0 0 0 0 0 0 0 0 1 1 0 0 1 1 1 1 1 0 0 0 0 0 0 0 0 0 0 0 0 0 0 0 0 0 0 0 0 0
0 0 0 0 0 0 0 0 0 0 0 0 0 0 0 0 0 0 0 0 0 0 0 0 0 1 2 2 1 0 0 0 0 0 0 0 0 0 0 0 0 0 0 0 0 0 0 0 0
0 0 0 0 0 0 0 0 0 0 0 0 0 0 0 0 0 0 0 0 0 0 0 0 0 0 1 2 2 1 0 0 0 0 0 0 0 0 0 0 0 0 0 0 0 0 0 0 0
0 0 0 0 0 0 0 0 0 0 0 0 0 0 0 0 0 0 0 0 0 0 0 0 0 0 0 1 2 2 0 0 0 0 0 0 0 0 0 0 0 0 0 0 0 0 0 0 0
0 0 0 0 0 0 0 0 0 0 0 0 0 0 0 0 0 0 0 0 0 0 0 0 0 0 0 1 1 1 0 0 0 0 0 0 0 0 0 0 0 0 0 0 0 0 0 0 0
0 0 0 0 0 0 0 0 0 0 0 0 0 0 0 0 0 0 0 1 0 0 0 0 0 0 0 0 0 0 0 0 0 0 0 0 0 0 0 0 0 0 0 0 0 0 0 0 0
0 0 0 0 0 0 0 0 0 0 0 0 0 0 0 0 0 0 0 0 0 0 0 0 0 0 0 0 0 0 0 1 1 0 0 0 0 0 0 0 0 0 0 0 0 0 0 0 0
0 0 0 0 0 0 0 0 0 0 0 0 0 0 0 0 0 0 0 0 0 0 0 0 0 0 0 0 0 1 1 2 2 1 1 1 0 0 0 0 0 0 0 0 0 0 0 0 0
0 0 0 0 0 0 0 0 0 0 0 0 0 0 0 0 0 0 0 0 0 0 0 0 0 0 0 0 0 1 2 3 3 2 2 2 1 1 1 0 0 0 0 0 0 0 0 0 0
0 0 0 0 0 0 0 0 0 0 0 0 0 0 0 0 0 0 0 0 0 0 0 0 0 0 0 0 0 1 2 2 3 2 2 2 3 2 2 1 0 0 0 0 0 0 0 0 0
0 0 0 0 0 0 0 0 0 0 0 0 0 0 0 0 0 0 0 0 0 0 0 0 0 0 0 0 0 0 1 1 2 2 2 2 3 3 3 2 1 0 0 0 0 0 0 0 0
Wind_Speed
5 3 2 2 3 1 3 3 3 3 4 5 5 4 5 6 5 6 5 4 4 5 6 7 7 7 8 8 7 7 7 7 7 7 7 6 7 7 7 7 8 8 8 8 8 9 9 9 9
3 2 2 2 2 2 4 3 4 5 5 4 5 5 5 6 6 6 5 5 4 5 6 7 8 7 8 8 8 8 7 7 7 7 7 7 7 7 7 7 7 8 8 8 9 9 9 9 9
3 2 2 1 1 2 4 4 6 7 4 2 4 4 5 5 4 5 5 6 5 6 6 8 7 8 8 8 8 8 7 7 7 7 7 8 8 8 7 7 7 7 8 8 8 8 9 9 9
2 2 2 1 5 5 4 5 6 6 4 3 4 5 6 5 3 5 7 6 6 6 6 8 7 8 8 8 7 7 7 8 8 8 8 8 8 8 7 7 8 7 7 7 8 8 9 9 9
2 2 2 4 5 4 5 4 4 4 4 4 4 6 6 5 5 7 7 6 6 7 6 8 7 7 8 7 7 7 7 8 8 8 8 8 8 8 8 8 8 7 7 7 8 8 8 8 9
2 2 2 4 5 4 4 3 3 5 6 5 5 5 6 5 6 7 7 6 6 7 6 8 8 7 7 7 7 7 8 8 8 8 8 8 8 8 8 7 7 7 7 7 8 8 9 9 9
1 1 3 5 5 4 4 2 2 4 5 4 3 4 7 7 6 6 6 6 6 6 6 5 6 7 7 7 7 7 8 8 9 9 9 9 9 8 8 7 7 8 8 8 9 9 10 10 10
2 1 4 4 4 5 3 2 3 3 4 4 1 3 6 8 8 7 6 6 6 6 5 5 5 5 6 6 7 8 8 8 9 9 8 8 8 8 6 7 8 7 8 9 9 9 10 10 10
2 1 3 3 3 4 3 3 3 2 4 3 3 4 7 11 10 8 7 6 6 5 5 4 4 4 4 5 7 6 7 6 6 7 6 3 4 6 5 10 8 8 8 9 9 9 8 8 9
1 1 4 3 3 3 3 2 3 4 4 5 6 7 9 10 9 9 8 7 7 6 5 4 4 4 4 4 4 3 4 4 3 4 4 3 4 4 5 8 7 8 8 9 8 6 5 2 5
1 2 3 3 3 2 2 2 1 3 3 4 6 9 10 10 9 8 7 6 6 5 4 4 4 4 4 3 3 2 2 2 3 3 4 3 3 3 3 3 5 5 4 5 6 4 3 4 5
3 3 2 2 2 1 2 2 2 2 3 4 5 8 10 10 8 7 6 5 5 5 4 4 3 4 4 3 3 2 2 1 2 2 4 3 2 2 3 2 3 3 3 3 3 3 5 5 6
4 4 3 3 3 2 3 2 2 3 3 5 6 8 8 8 7 7 5 5 5 4 4 4 3 3 3 3 1 1 1 1 3 2 2 3 2 2 3 3 3 3 3 3 3 3 5 5 6
5 4 3 3 3 2 3 2 1 3 5 6 6 6 6 6 6 6 6 5 5 5 4 5 4 4 3 3 2 1 1 2 2 2 2 3 3 2 2 3 3 3 3 3 3 4 4 3 4
4 4 3 2 2 1 1 2 2 4 5 6 5 5 4 5 6 6 5 5 4 4 4 4 4 4 3 2 1 1 0 1 2 2 2 2 2 2 2 2 3 3 2 3 2 4 3 3 3
4 3 3 3 1 1 1 2 4 4 4 4 4 4 4 5 5 5 5 5 5 5 5 4 3 4 3 2 2 1 1 1 1 1 1 1 2 2 2 2 2 2 2 2 2 2 2 3 2
3 2 3 3 2 0 1 1 2 3 4 3 4 4 5 5 5 5 5 6 5 5 5 5 5 5 5 3 2 2 1 1 1 1 1 1 1 1 2 1 2 2 2 2 2 2 2 3 3
2 2 2 2 2 0 1 1 1 3 4 4 4 5 5 5 5 5 6 6 6 5 5 5 5 5 5 3 3 2 2 2 1 1 1 1 1 1 2 2 2 2 2 2 2 3 2 1 1
1 1 1 2 1 1 1 1 2 2 4 4 4 5 4 4 4 5 6 7 7 6 6 6 6 5 4 3 3 3 2 2 2 1 2 2 1 1 2 1 2 2 2 2 2 2 3 2 1
2 1 1 1 1 2 1 2 2 2 3 3 3 3 4 4 5 5 6 7 7 7 7 6 6 6 5 3 3 2 2 2 1 1 2 2 2 1 1 2 2 2 2 2 2 2 2 2 2
2 1 1 1 1 1 2 1 3 3 2 2 2 2 3 3 4 5 6 7 7 7 7 6 6 6 6 5 3 3 2 2 3 2 1 1 1 1 1 2 2 2 2 2 2 2 2 2 2
1 0 2 3 4 1 3 1 2 3 2 2 2 3 3 3 4 5 6 6 7 7 6 6 6 6 6 6 5 5 3 3 2 1 2 2 2 1 1 2 2 2 2 2 3 2 2 2 2
0 1 2 3 3 3 3 3 2 3 1 1 2 3 3 3 4 5 5 6 6 5 5 5 6 5 5 5 5 5 4 2 2 2 2 2 2 2 1 2 2 2 2 2 2 2 2 2 1
3 3 3 4 4 3 1 3 1 2 1 1 1 2 3 3 4 4 5 4 4 4 5 5 6 5 5 6 6 6 4 3 3 3 2 2 2 2 2 2 2 2 2 2 2 2 2 2 1
3 4 3 4 3 1 1 3 0 2 1 1 1 2 2 3 4 4 5 5 5 5 5 6 6 6 6 6 6 6 5 4 4 3 3 2 2 2 2 2 2 2 2 2 2 2 2 2 2
3 4 3 2 1 1 3 2 2 2 1 0 1 2 3 3 3 4 4 4 5 5 6 6 6 6 6 6 6 5 4 3 2 3 2 2 1 1 2 2 1 1 1 2 2 2 2 2 2
3 3 4 5 3 3 2 2 2 2 1 1 1 2 3 3 3 4 4 4 5 5 6 6 6 6 6 6 5 5 5 4 3 3 2 2 2 1 1 2 2 2 2 2 2 2 2 2 1
3 2 3 4 3 3 2 2 1 1 1 1 0 1 2 3 3 3 4 4 4 4 4 5 5 6 6 5 5 4 4 4 4 3 3 2 2 2 2 2 2 2 2 2 2 1 1 2 1
4 4 4 3 4 4 2 1 2 1 0 1 1 1 1 2 3 4 3 4 4 4 4 5 5 4 5 5 5 5 4 4 4 3 3 3 2 3 3 2 2 2 2 2 2 2 2 2 2
4 4 5 4 3 4 4 0 4 1 1 1 1 1 0 1 2 3 3 3 4 4 4 4 4 5 4 5 5 5 4 4 4 4 3 3 3 3 3 3 3 2 2 2 3 3 2 2 2
Wind_Direction
162 160 193 224 220 156 82 67 75 96 79 64 59 59 65 48 33 69 91 98 95 105 106 111 97 96 96 95 91 89 89 88 88 93 101 105 108 105 97 90 87 83 84 85 81 76 73 71 69
153 164 211 233 240 134 91 87 91 71 86 95 73 67 71 68 59 87 112 108 108 105 103 97 98 97 93 89 85 84 84 84 88 93 98 102 105 102 99 95 93 87 85 84 80 73 73 72 69
155 221 247 226 83 66 88 92 97 91 87 79 82 59 53 69 80 89 103 121 116 105 98 95 99 99 93 88 83 78 78 81 87 91 94 96 97 97 95 93 92 90 85 83 81 75 75 75 72
210 210 205 109 91 64 76 100 117 120 99 69 97 89 81 58 67 97 117 122 114 106 96 95 98 98 94 89 86 82 81 82 85 86 88 92 95 95 94 93 89 89 88 87 85 80 77 76 72
236 238 148 115 88 75 79 89 114 111 102 92 99 100 95 83 95 113 118 120 114 107 98 98 94 95 92 91 89 87 86 86 86 85 85 88 93 92 90 88 85 87 88 88 89 87 82 79 77
223 226 154 116 100 93 86 86 112 102 106 109 109 108 95 109 113 111 113 113 109 107 103 103 105 96 91 90 92 89 87 86 87 86 85 86 90 89 87 87 86 87 91 92 91 90 86 82 79
316 61 96 110 111 103 81 83 103 104 104 98 116 114 118 129 120 122 117 112 106 105 104 102 108 108 103 93 87 85 83 83 84 84 83 83 87 88 84 87 86 91 93 90 88 88 85 79 75
336 137 120 110 116 94 88 99 85 81 85 93 129 124 128 140 137 132 123 118 117 114 111 107 104 103 107 108 93 82 81 80 81 81 83 88 96 96 95 98 83 88 92 89 87 87 83 78 74
271 177 112 94 100 97 114 118 101 86 108 106 88 81 109 134 145 143 138 136 131 123 116 109 102 100 100 98 97 98 97 92 109 107 105 126 107 100 101 74 78 84 87 88 87 87 88 93 91
303 101 75 56 71 101 106 97 119 149 128 123 120 115 128 145 155 154 151 146 141 135 124 115 113 107 103 95 97 95 94 97 97 101 110 101 88 78 82 96 88 89 95 100 90 96 121 136 97
66 78 87 76 78 98 103 80 105 147 108 120 132 138 148 156 160 161 156 148 136 133 131 128 125 115 105 103 96 87 87 93 102 105 113 104 101 111 102 113 123 115 123 103 111 126 80 72 65
104 78 91 95 92 90 91 100 95 72 74 93 121 140 153 161 165 170 164 152 145 145 137 135 136 128 120 110 99 101 104 105 102 117 108 106 94 93 94 103 92 100 91 84 78 73 80 74 75
111 94 82 89 94 98 103 101 92 94 107 114 128 146 157 164 169 174 171 163 158 151 151 146 144 133 124 103 94 113 104 109 109 102 112 105 110 103 102 100 100 91 92 102 88 83 79 72 68
106 111 101 93 98 108 112 106 135 130 132 131 140 151 162 166 171 171 175 172 167 167 165 155 161 155 151 143 143 95 93 113 102 110 121 116 110 104 104 104 101 91 87 88 98 88 83 77 72
140 133 113 88 91 95 128 106 130 131 146 145 153 159 166 175 180 189 187 189 182 176 170 160 167 166 163 148 114 97 116 121 115 114 126 122 117 121 112 103 101 96 102 104 89 90 89 88 87
177 178 136 90 65 102 241 99 98 129 156 159 169 173 180 186 195 195 194 194 186 182 170 156 168 172 163 152 153 135 121 99 100 102 97 118 121 111 109 112 104 101 100 101 100 99 103 101 90
185 156 123 109 79 131 239 116 115 159 178 188 187 191 195 192 200 195 195 194 187 181 174 168 171 174 165 159 164 148 148 139 125 123 116 120 123 141 137 125 128 128 127 117 117 106 103 99 93
155 138 113 84 73 167 254 229 179 191 196 192 193 201 202 209 204 197 198 198 192 189 181 175 173 179 165 166 172 154 155 154 135 125 135 127 143 133 122 149 159 139 133 130 130 118 110 99 113
168 154 92 45 24 298 283 247 216 191 199 200 201 198 203 210 201 192 195 195 193 192 193 184 184 178 174 172 180 175 167 161 146 141 145 148 157 144 130 162 149 157 148 143 148 140 143 153 162
179 188 96 77 35 300 300 278 196 194 212 224 221 207 203 203 193 180 190 189 193 193 198 192 190 185 183 180 179 171 160 162 137 144 143 162 159 149 153 178 166 163 156 161 157 162 178 157 204
191 250 269 307 308 215 259 214 155 153 173 192 215 212 202 201 201 181 186 184 188 193 196 198 192 185 186 177 169 156 152 177 168 163 157 158 162 158 175 188 179 171 180 169 178 182 198 195 193
207 173 233 245 252 253 282 256 140 145 161 167 184 191 202 194 196 183 184 185 192 195 195 195 190 186 180 177 181 181 189 191 187 176 166 156 155 163 177 179 182 174 180 172 189 182 198 218 204
84 157 231 267 271 245 244 252 129 148 176 163 165 183 196 202 196 184 187 190 191 188 191 193 185 184 176 180 183 197 198 194 181 178 171 165 142 147 174 183 180 172 179 181 180 183 207 212 234
159 184 201 231 245 232 264 268 137 116 299 291 203 183 189 190 189 183 177 177 178 174 181 184 181 176 176 182 188 199 193 190 178 177 169 169 152 155 168 179 184 181 183 180 184 185 187 212 210
214 240 221 208 207 161 116 259 69 59 4 306 260 189 174 172 175 175 172 173 173 174 178 181 182 178 180 186 192 198 196 190 183 179 173 179 161 160 165 181 189 183 176 170 178 178 174 178 193
231 271 287 292 281 140 194 238 85 64 56 77 147 152 153 157 162 164 169 175 176 177 180 182 183 182 182 189 193 195 185 190 179 183 175 178 167 157 157 174 176 164 162 166 166 183 176 178 182
230 239 294 287 275 262 198 174 150 133 105 84 108 145 156 161 165 164 165 172 173 176 179 182 182 182 182 188 188 186 181 182 175 181 179 170 162 151 161 165 160 154 168 173 174 186 174 178 190
282 267 233 251 271 256 219 218 211 162 353 19 41 197 183 177 174 168 165 166 166 166 169 173 184 184 179 180 180 178 183 181 180 176 173 171 162 150 162 162 163 156 162 159 166 177 171 168 148
202 211 231 251 280 288 269 137 66 169 309 294 307 306 195 191 184 173 169 165 157 156 161 166 176 180 175 178 178 176 182 183 177 178 176 180 172 168 171 176 175 157 156 156 157 164 158 175 168
256 252 244 258 247 270 284 63 98 125 147 265 300 343 112 167 180 171 163 158 158 155 161 166 172 172 175 178 177 180 178 179 182 179 180 187 182 182 185 174 170 166 172 174 170 172 175 189 198